Tracking 25963 objects as of 12-Aug-2022
HD Live streaming from Space Station
objects crossing your sky now

SL-24 DEB

Track SL-24 DEB now!
10-day predictions


NORAD ID: 33318
Int'l Code: 2008-040G
Perigee: 581.4 km
Apogee: 599.0 km
Inclination: 98.1 °
Period: 96.3 minutes
Semi major axis: 6961 km
RCS: 5.1176 m2 (large)
Launch date: August 29, 2008
Source: Commonwealth of Independent States (former USSR) (CIS)
Launch site: TYURATAM MISSILE AND SPACE COMPLEX (TTMTR)

Note: This is SATELLITE DEBRIS
aabbcc
Your satellite tracking list
Your tracking list is empty




NASA's NSSDC Master Catalog

Two Line Element Set (TLE):
1 33318U 08040G   22223.66288005  .00001098  00000-0  10658-3 0  9997
2 33318  98.1030  86.9092 0012624 163.0715 197.0928 14.94775167758178
Source of the keplerian elements: AFSPC